• Processing (Info)

  • MPEC 2016-R63 : 2016 RU1

    The following Minor Planet Electronic Circular may be linked-to from your own Web pages, but must not otherwise be redistributed electronically.

    A form allowing access to any MPEC is at the bottom of this page.


    Read MPEC 2016-R62 Read MPEC 2016-R64


    M.P.E.C. 2016-R63                                Issued 2016 Sept. 6, 15:32 UT
    
         The Minor Planet Electronic Circulars contain information on unusual
             minor planets and routine data on comets.  They are published
        on behalf of Division F of the International Astronomical Union by the
              Minor Planet Center, Smithsonian Astrophysical Observatory,
                              Cambridge, MA 02138, U.S.A.
    
                 Prepared using the Tamkin Foundation Computer Network
    
                                  MPC@CFA.HARVARD.EDU
                URL https://www.minorplanetcenter.net/    ISSN 1523-6714
    
                                       2016 RU1
    
    Observations:
         K16R01U* C2016 09 05.26654 22 03 42.30 +04 31 32.5          19.0 VqER063G96
         K16R01U  C2016 09 05.27036 22 03 57.90 +04 31 51.2          19.6 VqER063G96
         K16R01U  C2016 09 05.27811 22 04 28.79 +04 32 27.1          19.7 VqER063G96
         K16R01U  C2016 09 05.32263 22 07 25.91 +04 35 54.5          19.1 VqER063G96
         K16R01U  C2016 09 05.32384 22 07 30.56 +04 35 59.7          19.3 VqER063G96
         K16R01U  C2016 09 05.32500 22 07 35.16 +04 36 05.0          19.3 VqER063G96
         K16R01U  C2016 09 05.32615 22 07 39.71 +04 36 09.9          19.2 VqER063G96
         K16R01U  C2016 09 05.42047 22 13 43.03 +04 42 50.4          19.3 VqER063G96
         K16R01U  C2016 09 05.42095 22 13 44.89 +04 42 51.9          19.3 VqER063G96
         K16R01U  C2016 09 05.42149 22 13 46.89 +04 42 54.4          19.2 VqER063G96
         K16R01U  C2016 09 05.42199 22 13 48.84 +04 42 56.3          19.6 VqER063G96
         K16R01U  C2016 09 05.44278 22 15 07.30 +04 44 18.1          19.4 VqER063G96
         K16R01U  C2016 09 05.44290 22 15 07.77 +04 44 18.5          19.4 VqER063G96
         K16R01U  C2016 09 05.44302 22 15 08.20 +04 44 19.3          19.4 VqER063G96
         K16R01U  C2016 09 05.44314 22 15 08.73 +04 44 20.3          19.3 VqER063G96
         K16R01U KC2016 09 05.46095 22 16 15.58 +04 45 33.1                oER063291
         K16R01U KC2016 09 05.46229 22 16 20.62 +04 45 38.3                oER063291
         K16R01U KC2016 09 05.46353 22 16 25.25 +04 45 43.2                oER063291
         K16R01U KC2016 09 05.85287 22 39 26.35 +05 06 35.2          19.0 RtER063104
         K16R01U KC2016 09 05.85583 22 39 35.06 +05 06 44.3          19.4 RtER063104
         K16R01U KC2016 09 05.97972 22 45 25.55 +05 12 17.4          19.5 RqER063203
         K16R01U KC2016 09 06.01309 22 46 59.39 +05 13 49.1          19.7 VqER063I93
         K16R01U KC2016 09 06.01686 22 47 09.52 +05 13 58.3          20.0 VqER063I93
         K16R01U KC2016 09 06.01749 22 47 07.54 +05 13 52.3          19.4 RqER063203
         K16R01U  C2016 09 06.24096 22 57 17.92 +05 23 48.3          20.1 VqER063G96
         K16R01U  C2016 09 06.24752 22 57 33.23 +05 24 01.4          19.6 VqER063G96
         K16R01U  C2016 09 06.25416 22 57 48.70 +05 24 15.8          19.4 VqER063G96
         K16R01U  C2016 09 06.26075 22 58 03.95 +05 24 29.4                qER063G96
    
    Observer details:
    104 San Marcello Pistoiese.  Observer P. Bacci.  Measurers P. Bacci, L. Tesi,
        G. Fagioli.  0.60-m f/4 reflector + CCD.
    203 GiaGa Observatory.  Observers S. Foglia, G. Galli.  Measurer G. Galli.
        0.28-m f/6.8 Schmidt-Cassegrain + CCD.
    291 LPL/Spacewatch II.  Observer T. H. Bressi.  1.8-m f/2.7 reflector + CCD.
    G96 Mt. Lemmon Survey.  Observers R. G. Matheny, D. C. Fuls.  Measurers
        E. J. Christensen, D. C. Fuls, A. R. Gibbs, A. D. Grauer, J. A. Johnson,
        R. A. Kowalski, S. M. Larson, G. J. Leonard, R. G. Matheny, R. L. Seaman,
        F. C. Shelly.  1.5-m reflector + 10K CCD.
    I93 St Pardon de Conques.  Observer F. Losse.  0.40-m f/3.7 reflector + CCD.
    
    Orbital elements:
    2016 RU1                                                 Earth MOID = 0.0043 AU
    Epoch 2016 July 31.0 TT = JDT 2457600.5                 MPC
    M 357.20051              (2000.0)            P               Q
    n   0.30420048     Peri.  123.01757     +0.62606740     +0.77976836
    a   2.1895899      Node   185.74328     -0.71856624     +0.57645288
    e   0.5621466      Incl.    0.54624     -0.30282367     +0.24426087
    P   3.24           H   27.7           G   0.15           U   6
    Residuals in seconds of arc
    160905 G96  0.3+  0.1-    160905 G96  0.4+  0.1+    160905 203  0.2-  0.4-
    160905 G96 (2.7+  0.2+)   160905 G96  0.2-  0.2-    160906 I93  0.3-  0.0
    160905 G96 (2.2-  0.9-)   160905 G96  0.0   0.2-    160906 I93  0.6+  0.1-
    160905 G96  0.6+  0.1+    160905 G96  0.3-  0.1+    160906 203  0.1-  0.2+
    160905 G96  1.0-  0.1-    160905 G96  0.9+  0.6+    160906 G96  0.2+  0.5+
    160905 G96  0.3-  0.0     160905 291  0.2-  0.1-    160906 G96  0.2-  0.3-
    160905 G96  0.2+  0.3-    160905 291  0.2+  0.1-    160906 G96  0.1+  0.2+
    160905 G96  0.3-  0.3+    160905 291  0.0   0.1+    160906 G96  0.1-  0.1+
    160905 G96  0.3+  0.1-    160905 104  0.0   0.4-
    160905 G96  0.4-  0.2+    160905 104  0.0   0.2-
    
    Ephemeris:
    2016 RU1                 a,e,i = 2.19, 0.56, 1                   q = 0.9587
    Date    TT    R. A. (2000) Decl.     Delta      r     Elong.  Phase     V
    2016 08 07    13 19 40.4 -05 23 12   0.1617  0.9592    65.8   105.4    27.6
    ...
    2016 08 22    13 45 40.4 -06 00 57   0.07504 0.9734    57.7   118.6    26.8
    ...
    2016 08 30    14 39 40.3 -05 39 38   0.02931 0.9967    62.9   115.6    24.6
    ...
    2016 09 05    21 43 15.9 +04 12 34   0.01315 1.0205   158.8    21.0    19.4
    2016 09 06    22 46 23.6 +05 18 33   0.01736 1.0250   167.8    12.0    19.7
    2016 09 07    23 23 20.2 +05 45 49   0.02235 1.0295   167.1    12.6    20.3
    ...
    2016 09 13    00 32 10.2 +06 06 50   0.05649 1.0595   160.5    18.5    22.5
    ...
    2016 09 21    00 50 03.4 +05 54 50   0.1051  1.1056   164.4    14.1    23.8
    ...
    2016 10 06    00 56 00.0 +05 26 05   0.2062  1.2058   177.9     1.8    24.9
    
    A. U. Tomatic                (C) Copyright 2016 MPC           M.P.E.C. 2016-R63
    

    Read MPEC 2016-R62 Read MPEC 2016-R64


    MPEC number:

    Enter an MPEC number in one of the following forms:

    • 1997-B01 (the full form)
    • J97B01 (the packed version of the full form)
    • B01 (the abbreviated form)